Regional Weather Roundup
Issued by NWS

Home | Current Version | Previous Version | Text Only | Print | Product List | Glossary On
Versions: 1 2 3 4 5 6 7 8 9 10 11 12 13 14 15 16 17 18 19 20 21 22 23 24 25 26 27 28 29 30 31 32 33 34 35 36 37 38 39 40 41 42 43 44 45 46 47 48 49 50
000
ASUS43 KDTX 261101
RWRMI
MICHIGAN HOURLY REGIONAL WEATHER ROUNDUP
NATIONAL WEATHER SERVICE DETROIT/PONTIAC MI
700 AM EDT SUN APR 26 2015

NOTE: "FAIR" INDICATES FEW OR NO CLOUDS BELOW 12,000 FEET WITH NO
SIGNIFICANT WEATHER AND/OR OBSTRUCTION TO VISIBILITY.

MIZ047>049-052>055-059>063-066>070-074>076-081>083-261200-
SOUTHEAST LOWER MICHIGAN

CITY           SKY/WX    TMP DP  RH WIND       PRES   REMARKS
ADRIAN         CLEAR     35  26  69 NE10      29.89R WCI  27
ALMA           CLEAR     29  27  92 N5        29.94R WCI  24
ANN ARBOR      CLEAR     36  25  64 N8        29.88R WCI  30
BAD AXE        CLEAR     29  26  88 CALM      29.92R
CARO           CLEAR     26  24  90 CALM      29.92R
DETROIT CITY   CLEAR     35  26  69 N8        29.88R WCI  29
DETROIT        CLEAR     36  26  67 N5        29.89R WCI  32
FLINT          CLEAR     31  24  75 NW3       29.92R
GROSSE ILE     CLEAR     36  28  75 NW5       29.86R WCI  32
HILLSDALE      CLEAR     34  25  70 N3        29.89R
HOWELL         CLEAR     31  24  75 CALM      29.90R

CITY           SKY/WX    TMP DP  RH WIND       PRES   REMARKS
JACKSON        CLEAR     31  24  75 CALM      29.90R
LAMBERTVILLE   CLEAR     37  28  70 N6        29.88R WCI  33
LANSING        CLEAR     30  25  81 N5        29.93R WCI  25
LAPEER         FAIR      32  26  78 N3        29.91R
MASON          CLEAR     30  24  79 CALM      29.91R
MONROE         CLEAR     34  27  75 N5        29.86R WCI  30
PONTIAC        CLEAR     34  24  67 N9        29.88R WCI  27
PORT HOPE        N/A     40  32  73 NE7       29.90R
PORT HURON     CLEAR     32  28  86 N3        29.89R
TRI CITIES     CLEAR     33  24  69 N8        29.94R WCI  26
MIDLAND        FAIR      29  25  86 CALM      29.93R
TROY           CLEAR     38  26  61 N8        29.89R WCI  32
SAGINAW HB     CLEAR     32  27  80 NW7       29.93R WCI  26
$$
MIZ043>046-050>051-056>058-064>065-071>073-077>080-261200-
SOUTHWEST LOWER MICHIGAN

CITY           SKY/WX    TMP DP  RH WIND       PRES   REMARKS
BATTLE CREEK   CLEAR     33  26  75 N3        29.92R
BENTON HARBOR  CLEAR     34  26  72 NE5       29.93R WCI  30
BIG RAPIDS     CLEAR     34  25  71 N5        29.94S WCI  30
COLDWATER      CLEAR     34  26  72 N6        29.91R WCI  28
FREMONT        FAIR      32  23  70 CALM      29.95S
HOLLAND        CLEAR     36  26  67 CALM      29.95R
GRAND RAPIDS   CLEAR     35  24  64 N3        29.94R
IONIA          FAIR      34  25  71 N6        29.92S WCI  29
KALAMAZOO      CLEAR     31  25  78 N5        29.93R WCI  26
LUDINGTON      CLEAR     31  25  78 N5        29.99R WCI  26
MARSHALL       CLEAR     32  26  78 W5        29.91R WCI  27
MOUNT PLEASANT CLEAR     32  25  74 CALM      29.94R
MUSKEGON       CLEAR     35  24  64 N7        29.97R WCI  29
SOUTH HAVEN    CLEAR     33  26  75 CALM      29.94R
$$
MIZ016>042-261200-
NORTHERN LOWER MICHIGAN

CITY           SKY/WX    TMP DP  RH WIND       PRES   REMARKS
BEAVER ISLAND  CLEAR     28  27  96 CALM      29.99R
BELLAIRE       CLEAR     28  25  88 CALM      29.99R
CADILLAC       CLEAR     31  24  74 CALM      29.94R
CHARLEVOIX     CLEAR     32  30  91 CALM      30.00S
FRANKFORT      CLEAR     32  24  71 CALM      29.99R
GAYLORD        CLEAR     29  23  78 CALM      29.95R
GRAYLING       CLEAR     22  20  93 CALM      29.96R
HARBOR SPRINGS CLEAR     29  24  78 CALM      29.97S
HOUGHTON LAKE  CLEAR     31  22  69 NE5       29.95R WCI  26
MANISTEE       CLEAR     28  21  74 CALM      29.99R
OSCODA         CLEAR     31  26  82 NW3       29.93R
PELLSTON       CLEAR     25  22  88 NW5       29.98R WCI  19
ROGERS CITY    CLEAR     32  30  92 W3        29.97S
TRAVERSE CITY  CLEAR     29  24  82 CALM      29.98R
$$
MIZ007>008-015-261200-
EASTERN UPPER MICHIGAN

CITY           SKY/WX    TMP DP  RH WIND       PRES   REMARKS
KINROSS        CLEAR     28  28 100 N6        29.98R WCI  22
MACKINAC ISLAN CLEAR     32  27  83 N6        29.97R WCI  26
NEWBERRY       CLEAR     30  27  86 NW8       29.99R WCI  23
S. S. MARIE    CLEAR     30  24  78 W3        29.98R
$$
MIZ004>006-011>014-085-261200-
CENTRAL UPPER MICHIGAN

CITY           SKY/WX    TMP DP  RH WIND       PRES   REMARKS
MANISTIQUE     CLEAR     30  27  88 NW8       30.01R WCI  22
ESCANABA       CLEAR     32  19  59 NW6       30.02R WCI  26
MENOMINEE      CLEAR     30  18  59 NW3       30.03R
SAWYER-GWINN   CLEAR     28  21  74 N9        30.03R WCI  20
$$
MIZ001>003-009>011-084-261200-
WESTERN UPPER MICHIGAN

CITY           SKY/WX    TMP DP  RH WIND       PRES   REMARKS
IRON MOUNTAIN  CLEAR     26  19  74 CALM      30.03R
HOUGHTON       CLEAR     28  22  78 NW5       30.06R WCI  23
COPPER HARBOR    N/A     33  27  78 CALM      30.08R
IRONWOOD       CLEAR     23  21  93 CALM      30.06R
$$

ABBREVIATIONS USED IN REMARKS
   TC - TEMPERATURE IN CELSIUS
  WCI - WIND CHILL INDEX
   HX - HEAT INDEX
  VSB - VISIBILITY



USA.gov is the U.S. government's official web portal to all federal, state and local government web resources and services.